Flag for Canada Weather past 2 weeks in Nanaimo, British Columbia, Canada

Now
58 °F

Cool.


Feels Like: 56 °F
Forecast: 58 / 65 °F
Wind: 10 mph from South

Location: Entrance Island

Current Time: Sep 22, 2014 at 9:31:39 PM

Latest Report: Sep 22, 2014 at 8:00 PM


Visibility: N/A

Pressure: 29.92 "Hg

Humidity: 85%

Dew point: 54 °F

Location of NanaimoLocation

Historic Weather in Nanaimo — Graph

°F

Nanaimo temperature yesterday

Maximum temperature yesterday: 68 °F (at 5:00 PM)
Minimum temperature yesterday: 56 °F (at 4:00 AM)
Average temperature yesterday: 62 °F

Past Weeks' High & Low Weather Summary

 TemperatureHumidityPressure
High69 °F (Sep 7, 8:00 PM)95% (Sep 19, 4:00 PM)30.35 "Hg (Sep 19, 4:00 PM)
Low56 °F (Sep 11, 7:00 AM)43% (Sep 11, 3:00 PM)29.70 "Hg (Sep 18, 4:00 AM)
Average62 °F74%29.96 "Hg
* Reported Sep 7 8:00 PM — Sep 22 8:00 PM, Nanaimo, Weather by CustomWeather, © 2014

Note: Actual official high and low records may vary slightly from our data, if they occured in-between our weather recording intervals... More about our weather records

Advertising

Nanaimo weather history for previous 24 hours

 ConditionsComfort  
Time TempWeatherWind HumidityBarometerVisibility
8:00 PM
Sep 22
58 °FCool.10 mph85%29.92 "HgN/A
7:00 PM59 °FCool.12 mph84%29.92 "HgN/A
6:00 PM59 °FCool.15 mph87%29.93 "HgN/A
5:00 PM59 °FCool.14 mph81%29.93 "HgN/A
4:00 PM60 °FCool.16 mph83%29.94 "HgN/A
3:00 PM60 °FCool.16 mph83%29.94 "HgN/A
2:00 PM60 °FCool.17 mph86%29.94 "HgN/A
1:00 PM59 °FCool.16 mph88%29.96 "HgN/A
12:00 PM58 °FCool.18 mph88%29.95 "HgN/A
11:00 AM58 °FCool.16 mph87%29.96 "HgN/A
10:00 AM59 °FCool.17 mph86%29.95 "HgN/A
9:00 AM56 °FCool.13 mph94%29.92 "HgN/A
8:00 AM56 °FCool.15 mph95%29.90 "HgN/A
7:00 AM58 °FCool.17 mph90%29.89 "HgN/A
6:00 AM58 °FCool.16 mph90%29.90 "HgN/A
5:00 AM58 °FCool.20 mph89%29.90 "HgN/A
4:00 AM59 °FCool.20 mph89%29.89 "HgN/A
3:00 AM59 °FCool.18 mph88%29.87 "HgN/A
2:00 AM59 °FCool.14 mph87%29.86 "HgN/A
1:00 AM60 °FCool.17 mph87%29.85 "HgN/A
12:00 AM60 °FCool.13 mph87%29.84 "HgN/A
11:00 PM
Sep 21
61 °FCool.15 mph86%29.83 "HgN/A
10:00 PM61 °FCool.8 mph83%29.82 "HgN/A
9:00 PM63 °FMild.14 mph80%29.80 "HgN/A
Weather by CustomWeather, © 2014

See weather overviewHow to use our weather pages